Miscellaneous Local Product
Issued by NWS North Platte, NE

Home | Current Version | Previous Version | Text Only | Print | Product List | Glossary On
Versions: 1 2 3 4 5 6 7 8 9 10 11 12 13 14 15 16 17 18 19 20 21 22 23 24 25 26 27 28 29 30 31 32 33 34 35 36 37 38 39 40 41 42 43 44 45 46 47 48 49 50
184
AXUS43 KLBF 280510
MISLBF


WESTERN AND NORTH CENTRAL NEBRASKA HOURLY WEATHER ROUNDUP
NATIONAL WEATHER SERVICE NORTH PLATTE NE
1200 AM CDT SUN MAY 28 2017

NOTE: "FAIR" INDICATES FEW OR NO CLOUDS BELOW 12,000 FEET WITH NO
SIGNIFICANT WEATHER AND/OR OBSTRUCTIONS TO VISIBILITY.

NOTE: STATIONS NOT REPORTING VARIABLES SUCH AS SKY/WEATHER OR
PRESSURE ARE PROVIDED BY RAWS AND APRS NETWORKS AND ARE NOT UNDER
NATIONAL WEATHER SERVICE QUALITY CONTROL.

...OBSERVATIONS IN AND NEAR THE EASTERN PANHANDLE OF NEBRASKA...

CITY           SKY/WX    TMP DP  RH WIND       PRES   REMARKS
PINE RIDGE     MOCLDY    54  47  77 CALM      30.07R
GORDON         CLOUDY    56  45  66 W7        30.07S
CHADRON        PTCLDY    49  43  80 SW7       30.09R
ALLIANCE       CLEAR     43  40  89 W9        30.10F
SIDNEY         CLEAR     42  39  89 SW9       30.16R
CRESCENT LAKE    N/A     50  42  73 W9          N/A
$$

...OBSERVATIONS IN NORTHERN NEBRASKA AND FAR SOUTHERN SOUTH DAKOTA...

CITY           SKY/WX    TMP DP  RH WIND       PRES   REMARKS
WINNER         CLOUDY    60  46  59 W9        29.96R
VALENTINE      CLOUDY    58  45  62 W9        30.01R
THEDFORD       CLEAR     51  45  81 SW6       30.05S
AINSWORTH      CLOUDY    55  47  76 W8        30.00F
O`NEILL        CLEAR     53  49  87 SW7       29.98S
ORD            CLEAR     51  47  86 CALM      29.99F
BROKEN BOW     CLEAR     53  50  89 W6        30.03F
VALENTINE NWR    N/A     55  43  65 W7          N/A
HALSEY           N/A     54  46  75 SW5         N/A
BUTTE            N/A     55  48  78 SW5         N/A
CHAMBERS         N/A     54  51  89 CALM        N/A
EWING            N/A     54  51  90 SW3         N/A
$$

...OBSERVATIONS IN SOUTHWEST NEBRASKA AND FAR NORTHEAST COLORADO...

CITY           SKY/WX    TMP DP  RH WIND       PRES   REMARKS
WRAY           FAIR      46  43  87 W6        30.15S
IMPERIAL       CLEAR     52  44  74 W8        30.12S
OGALLALA       CLEAR     47  45  91 W6        30.11S
NORTH PLATTE   CLEAR     46  45  96 CALM      30.08S
MCCOOK         CLEAR     53  50  89 W7        30.09R
LEXINGTON      CLEAR     51  48  90 W6        30.05F
STAPLETON        N/A     50  47  88 CALM        N/A
GOTHENBURG       N/A     55  48  78 W3          N/A
CALLAWAY         N/A     52  49  90 W8          N/A
$$

...OBSERVATIONS IN CENTRAL LINCOLN COUNTY AREA...

CITY           SKY/WX    TMP DP  RH WIND       PRES   REMARKS
N.P. AIRPORT   CLEAR     46  45  96 CALM      30.08S
N.P. DOWNTOWN    N/A     52  49  89 CALM        N/A
N.P. SOUTHEAST   N/A     53  48  84 CALM        N/A
N.P. HILLCREST   N/A     53  49  87 CALM        N/A
$$

...SOME OBSERVATIONS FROM AROUND THE REGION...

CITY           SKY/WX    TMP DP  RH WIND       PRES   REMARKS
DENVER         PTCLDY    46  41  82 SW7       30.26R
LIMON          CLOUDY    42  41  96 NW5       30.26R
ASPEN          CLOUDY    36  33  89 SW9       30.35R WCI  29
LARAMIE        CLEAR     36  29  75 W7        30.29S WCI  30
CASPER         CLEAR     43  38  82 SW8       30.23R
CHEYENNE       CLEAR     42  35  76 W10       30.25S
SCOTTSBLUFF    CLEAR     48  42  80 NW6       30.15R
GRAND ISLAND   PTCLDY    55  52  89 W7        30.02R
OMAHA          PTCLDY    59  54  83 NW5       29.92R
SIOUX FALLS    CLEAR     57  52  83 SW6       29.89F
PIERRE         PTCLDY    59  43  55 W12       29.91S
RAPID CITY     PTCLDY    52  40  63 W9        30.05R
BISMARCK       CLEAR     51  44  77 CALM      29.87S
KANSAS CITY    CLOUDY    63  60  90 N5        29.87R
HILL CITY      CLOUDY    60  53  77 NW10      30.07R
WICHITA        CLOUDY    69  62  78 N13       29.93R
DODGE CITY     CLOUDY    58  55  90 W7        30.08F
OKLAHOMA CITY  CLOUDY    76  63  64 N21G30    29.83R
DALLAS         CLEAR     85  75  72 S20       29.74S HX  93
AMARILLO       CLEAR     56  49  77 N25G32    30.09R
$$




USA.gov is the U.S. government's official web portal to all federal, state and local government web resources and services.